owner,sensor,date,latitude,longitude,vertical_datum,sea_water_practical_salinity,qcFlag 
SCCF RECON,ioos:station:SCCF:13:1,2008-09-01T00:00:00Z,26.5255,-82.0032,2.56,30.66,1111122 
SCCF RECON,ioos:station:SCCF:13:1,2008-09-01T01:00:00Z,26.5255,-82.0032,2.5,22.17,1111122 
SCCF RECON,ioos:station:SCCF:13:1,2008-09-01T02:00:00Z,26.5255,-82.0032,2.49,17.38,1111122 
SCCF RECON,ioos:station:SCCF:13:1,2008-09-01T03:00:00Z,26.5255,-82.0032,2.58,16.65,1111122 
SCCF RECON,ioos:station:SCCF:13:1,2008-09-01T04:00:00Z,26.5255,-82.0032,2.68,19.4,1111122 
SCCF RECON,ioos:station:SCCF:13:1,2008-09-01T05:00:00Z,26.5255,-82.0032,2.72,24.4,1111122 
SCCF RECON,ioos:station:SCCF:13:1,2008-09-01T06:00:00Z,26.5255,-82.0032,2.72,25.94,1111122 
SCCF RECON,ioos:station:SCCF:13:1,2008-09-01T07:00:00Z,26.5255,-82.0032,2.673,27.13,1111122 
SCCF RECON,ioos:station:SCCF:13:1,2008-09-01T08:00:00Z,26.5255,-82.0032,2.584,27.93,1111122 
SCCF RECON,ioos:station:SCCF:13:1,2008-09-01T09:00:00Z,26.5255,-82.0032,2.47,23.53,1111122 
SCCF RECON,ioos:station:SCCF:13:1,2008-09-01T10:00:00Z,26.5255,-82.0032,2.37,12.01,1111122 
SCCF RECON,ioos:station:SCCF:13:1,2008-09-01T11:00:00Z,26.5255,-82.0032,2.29,10.72,1111122 
SCCF RECON,ioos:station:SCCF:13:1,2008-09-01T12:00:00Z,26.5255,-82.0032,2.22,8.1,1111122 
SCCF RECON,ioos:station:SCCF:13:1,2008-09-01T13:00:00Z,26.5255,-82.0032,2.16,6.91,1111122 
SCCF RECON,ioos:station:SCCF:13:1,2008-09-01T14:00:00Z,26.5255,-82.0032,2.16,6.96,1111122 
SCCF RECON,ioos:station:SCCF:13:1,2008-09-01T15:00:00Z,26.5255,-82.0032,2.312,6.7,1111122 
SCCF RECON,ioos:station:SCCF:13:1,2008-09-01T16:00:00Z,26.5255,-82.0032,2.465,7.25,1111122 
SCCF RECON,ioos:station:SCCF:13:1,2008-09-01T17:00:00Z,26.5255,-82.0032,2.54,10.51,1111122 
SCCF RECON,ioos:station:SCCF:13:1,2008-09-01T18:00:00Z,26.5255,-82.0032,2.61,19.86,1111122 
SCCF RECON,ioos:station:SCCF:13:1,2008-09-01T19:00:00Z,26.5255,-82.0032,2.679,24.97,1111122 
SCCF RECON,ioos:station:SCCF:13:1,2008-09-01T20:00:00Z,26.5255,-82.0032,2.69,25.95,1111122 
SCCF RECON,ioos:station:SCCF:13:1,2008-09-01T21:00:00Z,26.5255,-82.0032,2.66,25.17,1111122 
SCCF RECON,ioos:station:SCCF:13:1,2008-09-01T22:00:00Z,26.5255,-82.0032,2.551,25.55,1111122 
SCCF RECON,ioos:station:SCCF:13:1,2008-09-01T23:00:00Z,26.5255,-82.0032,2.442,23.28,1111122 
SCCF RECON,ioos:station:SCCF:13:1,2008-09-02T00:00:00Z,26.5255,-82.0032,2.36,12.14,1111122 
SCCF RECON,ioos:station:SCCF:13:1,2008-09-02T01:00:00Z,26.5255,-82.0032,2.3,10.48,1111122 
SCCF RECON,ioos:station:SCCF:13:1,2008-09-02T02:00:00Z,26.5255,-82.0032,2.28,8.73,1111122 
SCCF RECON,ioos:station:SCCF:13:1,2008-09-02T03:00:00Z,26.5255,-82.0032,2.32,7.94,1111122 
SCCF RECON,ioos:station:SCCF:13:1,2008-09-02T04:00:00Z,26.5255,-82.0032,2.45,7.39,1111122 
SCCF RECON,ioos:station:SCCF:13:1,2008-09-02T05:00:00Z,26.5255,-82.0032,2.56,16.81,1111122 
SCCF RECON,ioos:station:SCCF:13:1,2008-09-02T06:00:00Z,26.5255,-82.0032,2.59,20.07,1111122 
SCCF RECON,ioos:station:SCCF:13:1,2008-09-02T07:00:00Z,26.5255,-82.0032,2.61,22.8,1111122 
SCCF RECON,ioos:station:SCCF:13:1,2008-09-02T08:00:00Z,26.5255,-82.0032,2.593,26.65,1111122 
SCCF RECON,ioos:station:SCCF:13:1,2008-09-02T09:00:00Z,26.5255,-82.0032,2.49,27.15,1111122 
SCCF RECON,ioos:station:SCCF:13:1,2008-09-02T10:00:00Z,26.5255,-82.0032,2.37,22.82,1111122 
SCCF RECON,ioos:station:SCCF:13:1,2008-09-02T11:00:00Z,26.5255,-82.0032,2.275,9.2,1111122 
SCCF RECON,ioos:station:SCCF:13:1,2008-09-02T12:00:00Z,26.5255,-82.0032,2.2,8.53,1111122 
SCCF RECON,ioos:station:SCCF:13:1,2008-09-02T13:00:00Z,26.5255,-82.0032,2.11,7.12,1111122 
SCCF RECON,ioos:station:SCCF:13:1,2008-09-02T14:00:00Z,26.5255,-82.0032,2.04,6.06,1111122 
SCCF RECON,ioos:station:SCCF:13:1,2008-09-02T15:00:00Z,26.5255,-82.0032,2.06,5.6,1111122 
SCCF RECON,ioos:station:SCCF:13:1,2008-09-02T16:00:00Z,26.5255,-82.0032,2.199,5.32,1111122 
SCCF RECON,ioos:station:SCCF:13:1,2008-09-02T17:00:00Z,26.5255,-82.0032,2.322,5.19,1111122 
SCCF RECON,ioos:station:SCCF:13:1,2008-09-02T18:00:00Z,26.5255,-82.0032,2.39,7.85,1111122 
SCCF RECON,ioos:station:SCCF:13:1,2008-09-02T19:00:00Z,26.5255,-82.0032,2.43,12.48,1111122 
SCCF RECON,ioos:station:SCCF:13:1,2008-09-02T20:00:00Z,26.5255,-82.0032,2.46,22.0,1111122 
SCCF RECON,ioos:station:SCCF:13:1,2008-09-02T21:00:00Z,26.5255,-82.0032,2.48,23.6,1111122 
SCCF RECON,ioos:station:SCCF:13:1,2008-09-02T22:00:00Z,26.5255,-82.0032,2.441,23.96,1111122 
SCCF RECON,ioos:station:SCCF:13:1,2008-09-02T23:00:00Z,26.5255,-82.0032,2.378,23.76,1111122 
SCCF RECON,ioos:station:SCCF:13:1,2008-09-03T00:00:00Z,26.5255,-82.0032,2.3,21.42,1111122 
SCCF RECON,ioos:station:SCCF:13:1,2008-09-03T01:00:00Z,26.5255,-82.0032,2.237,11.89,1111122 
SCCF RECON,ioos:station:SCCF:13:1,2008-09-03T02:00:00Z,26.5255,-82.0032,2.2,7.29,1111122 
SCCF RECON,ioos:station:SCCF:13:1,2008-09-03T03:00:00Z,26.5255,-82.0032,2.21,6.73,1111122 
SCCF RECON,ioos:station:SCCF:13:1,2008-09-03T04:00:00Z,26.5255,-82.0032,2.33,7.66,1111122 
SCCF RECON,ioos:station:SCCF:13:1,2008-09-03T05:00:00Z,26.5255,-82.0032,2.467,18.36,1111122 
SCCF RECON,ioos:station:SCCF:13:1,2008-09-03T06:00:00Z,26.5255,-82.0032,2.52,21.38,1111122 
SCCF RECON,ioos:station:SCCF:13:1,2008-09-03T07:00:00Z,26.5255,-82.0032,2.58,25.45,1111122 
SCCF RECON,ioos:station:SCCF:13:1,2008-09-03T08:00:00Z,26.5255,-82.0032,2.61,27.45,1111122 
SCCF RECON,ioos:station:SCCF:13:1,2008-09-03T09:00:00Z,26.5255,-82.0032,2.58,27.84,1111122 
SCCF RECON,ioos:station:SCCF:13:1,2008-09-03T10:00:00Z,26.5255,-82.0032,2.52,28.08,1111122 
SCCF RECON,ioos:station:SCCF:13:1,2008-09-03T11:00:00Z,26.5255,-82.0032,2.41,28.09,1111122 
SCCF RECON,ioos:station:SCCF:13:1,2008-09-03T12:00:00Z,26.5255,-82.0032,2.29,19.91,1111122 
SCCF RECON,ioos:station:SCCF:13:1,2008-09-03T13:00:00Z,26.5255,-82.0032,2.21,10.35,1111122 
SCCF RECON,ioos:station:SCCF:13:1,2008-09-03T14:00:00Z,26.5255,-82.0032,2.14,8.55,1111122 
SCCF RECON,ioos:station:SCCF:13:1,2008-09-03T15:00:00Z,26.5255,-82.0032,2.1,7.78,1111122 
SCCF RECON,ioos:station:SCCF:13:1,2008-09-03T16:00:00Z,26.5255,-82.0032,2.161,7.27,1111122 
SCCF RECON,ioos:station:SCCF:13:1,2008-09-03T17:00:00Z,26.5255,-82.0032,2.29,6.49,1111122 
SCCF RECON,ioos:station:SCCF:13:1,2008-09-03T18:00:00Z,26.5255,-82.0032,2.38,12.28,1111122 
SCCF RECON,ioos:station:SCCF:13:1,2008-09-03T19:00:00Z,26.5255,-82.0032,2.43,17.61,1111122 
SCCF RECON,ioos:station:SCCF:13:1,2008-09-03T20:00:00Z,26.5255,-82.0032,2.47,20.31,1111122 
SCCF RECON,ioos:station:SCCF:13:1,2008-09-03T21:00:00Z,26.5255,-82.0032,2.49,24.68,1111122 
SCCF RECON,ioos:station:SCCF:13:1,2008-09-03T22:00:00Z,26.5255,-82.0032,2.51,25.69,1111122 
SCCF RECON,ioos:station:SCCF:13:1,2008-09-03T23:00:00Z,26.5255,-82.0032,2.489,26.6,1111122 
SCCF RECON,ioos:station:SCCF:13:1,2008-09-04T00:00:00Z,26.5255,-82.0032,2.43,26.42,1111122 
SCCF RECON,ioos:station:SCCF:13:1,2008-09-04T01:00:00Z,26.5255,-82.0032,2.344,23.79,1111122 
SCCF RECON,ioos:station:SCCF:13:1,2008-09-04T02:00:00Z,26.5255,-82.0032,2.29,19.39,1111122 
SCCF RECON,ioos:station:SCCF:13:1,2008-09-04T03:00:00Z,26.5255,-82.0032,2.31,12.66,1111122 
SCCF RECON,ioos:station:SCCF:13:1,2008-09-04T04:00:00Z,26.5255,-82.0032,2.383,20.63,1111122 
SCCF RECON,ioos:station:SCCF:13:1,2008-09-04T05:00:00Z,26.5255,-82.0032,2.51,20.97,1111122 
SCCF RECON,ioos:station:SCCF:13:1,2008-09-04T06:00:00Z,26.5255,-82.0032,2.58,22.93,1111122 
SCCF RECON,ioos:station:SCCF:13:1,2008-09-04T07:00:00Z,26.5255,-82.0032,2.62,26.32,1111122 
SCCF RECON,ioos:station:SCCF:13:1,2008-09-04T08:00:00Z,26.5255,-82.0032,2.658,28.11,1111122 
SCCF RECON,ioos:station:SCCF:13:1,2008-09-04T09:00:00Z,26.5255,-82.0032,2.65,29.84,1111122 
SCCF RECON,ioos:station:SCCF:13:1,2008-09-04T10:00:00Z,26.5255,-82.0032,2.62,29.99,1111122 
SCCF RECON,ioos:station:SCCF:13:1,2008-09-04T11:00:00Z,26.5255,-82.0032,2.52,30.01,1111122 
SCCF RECON,ioos:station:SCCF:13:1,2008-09-04T12:00:00Z,26.5255,-82.0032,2.4,24.37,1111122 
SCCF RECON,ioos:station:SCCF:13:1,2008-09-04T13:00:00Z,26.5255,-82.0032,2.311,12.93,1111122 
SCCF RECON,ioos:station:SCCF:13:1,2008-09-04T14:00:00Z,26.5255,-82.0032,2.24,10.03,1111122 
SCCF RECON,ioos:station:SCCF:13:1,2008-09-04T15:00:00Z,26.5255,-82.0032,2.18,8.79,1111122 
SCCF RECON,ioos:station:SCCF:13:1,2008-09-04T16:00:00Z,26.5255,-82.0032,2.16,9.08,1111122 
SCCF RECON,ioos:station:SCCF:13:1,2008-09-04T17:00:00Z,26.5255,-82.0032,2.212,7.98,1111122 
SCCF RECON,ioos:station:SCCF:13:1,2008-09-04T18:00:00Z,26.5255,-82.0032,2.32,7.73,1111122 
SCCF RECON,ioos:station:SCCF:13:1,2008-09-04T19:00:00Z,26.5255,-82.0032,2.37,12.09,1111122 
SCCF RECON,ioos:station:SCCF:13:1,2008-09-04T20:00:00Z,26.5255,-82.0032,2.41,17.44,1111122 
SCCF RECON,ioos:station:SCCF:13:1,2008-09-04T21:00:00Z,26.5255,-82.0032,2.437,20.41,1111122 
SCCF RECON,ioos:station:SCCF:13:1,2008-09-04T22:00:00Z,26.5255,-82.0032,2.43,22.2,1111122 
SCCF RECON,ioos:station:SCCF:13:1,2008-09-04T23:00:00Z,26.5255,-82.0032,2.403,24.11,1111122 
SCCF RECON,ioos:station:SCCF:13:1,2008-09-05T00:00:00Z,26.5255,-82.0032,2.37,25.07,1111122 
SCCF RECON,ioos:station:SCCF:13:1,2008-09-05T01:00:00Z,26.5255,-82.0032,2.31,21.99,1111122 
SCCF RECON,ioos:station:SCCF:13:1,2008-09-05T02:00:00Z,26.5255,-82.0032,2.26,16.72,1111122 
SCCF RECON,ioos:station:SCCF:13:1,2008-09-05T03:00:00Z,26.5255,-82.0032,2.229,10.37,1111122 
SCCF RECON,ioos:station:SCCF:13:1,2008-09-05T04:00:00Z,26.5255,-82.0032,2.26,9.88,1111122 
SCCF RECON,ioos:station:SCCF:13:1,2008-09-05T05:00:00Z,26.5255,-82.0032,2.34,21.27,1111122 
SCCF RECON,ioos:station:SCCF:13:1,2008-09-05T06:00:00Z,26.5255,-82.0032,2.42,22.63,1111122 
SCCF RECON,ioos:station:SCCF:13:1,2008-09-05T07:00:00Z,26.5255,-82.0032,2.51,21.24,1111122 
SCCF RECON,ioos:station:SCCF:13:1,2008-09-05T08:00:00Z,26.5255,-82.0032,2.58,24.61,1111122 
SCCF RECON,ioos:station:SCCF:13:1,2008-09-05T09:00:00Z,26.5255,-82.0032,2.6,25.04,1111122 
SCCF RECON,ioos:station:SCCF:13:1,2008-09-05T10:00:00Z,26.5255,-82.0032,2.59,25.59,1111122 
SCCF RECON,ioos:station:SCCF:13:1,2008-09-05T11:00:00Z,26.5255,-82.0032,2.56,27.32,1111122 
SCCF RECON,ioos:station:SCCF:13:1,2008-09-05T12:00:00Z,26.5255,-82.0032,2.49,27.61,1111122 
SCCF RECON,ioos:station:SCCF:13:1,2008-09-05T13:00:00Z,26.5255,-82.0032,2.39,24.24,1111122 
SCCF RECON,ioos:station:SCCF:13:1,2008-09-05T14:00:00Z,26.5255,-82.0032,2.334,17.51,1111122 
SCCF RECON,ioos:station:SCCF:13:1,2008-09-05T15:00:00Z,26.5255,-82.0032,2.275,13.37,1111122 
SCCF RECON,ioos:station:SCCF:13:1,2008-09-05T16:00:00Z,26.5255,-82.0032,2.24,10.35,1111122 
SCCF RECON,ioos:station:SCCF:13:1,2008-09-05T17:00:00Z,26.5255,-82.0032,2.24,8.79,1111122 
SCCF RECON,ioos:station:SCCF:13:1,2008-09-05T18:00:00Z,26.5255,-82.0032,2.31,9.2,1111122 
SCCF RECON,ioos:station:SCCF:13:1,2008-09-05T19:00:00Z,26.5255,-82.0032,2.388,10.84,1111122 
SCCF RECON,ioos:station:SCCF:13:1,2008-09-05T20:00:00Z,26.5255,-82.0032,2.42,17.89,1111122 
SCCF RECON,ioos:station:SCCF:13:1,2008-09-05T21:00:00Z,26.5255,-82.0032,2.46,16.04,1111122 
SCCF RECON,ioos:station:SCCF:13:1,2008-09-05T22:00:00Z,26.5255,-82.0032,2.49,14.65,1111122 
SCCF RECON,ioos:station:SCCF:13:1,2008-09-05T23:00:00Z,26.5255,-82.0032,2.508,19.37,1111122 
SCCF RECON,ioos:station:SCCF:13:1,2008-09-06T00:00:00Z,26.5255,-82.0032,2.48,19.5,1111122 
SCCF RECON,ioos:station:SCCF:13:1,2008-09-06T01:00:00Z,26.5255,-82.0032,2.45,16.85,1111122 
SCCF RECON,ioos:station:SCCF:13:1,2008-09-06T02:00:00Z,26.5255,-82.0032,2.44,15.48,1111122 
SCCF RECON,ioos:station:SCCF:13:1,2008-09-06T03:00:00Z,26.5255,-82.0032,2.45,13.9,1111122 
SCCF RECON,ioos:station:SCCF:13:1,2008-09-06T04:00:00Z,26.5255,-82.0032,2.48,13.53,1111122 
SCCF RECON,ioos:station:SCCF:13:1,2008-09-06T05:00:00Z,26.5255,-82.0032,2.52,18.79,1111122 
SCCF RECON,ioos:station:SCCF:13:1,2008-09-06T06:00:00Z,26.5255,-82.0032,2.57,18.39,1111122 
SCCF RECON,ioos:station:SCCF:13:1,2008-09-06T07:00:00Z,26.5255,-82.0032,2.634,18.36,1111122 
SCCF RECON,ioos:station:SCCF:13:1,2008-09-06T08:00:00Z,26.5255,-82.0032,2.68,19.21,1111122 
SCCF RECON,ioos:station:SCCF:13:1,2008-09-06T09:00:00Z,26.5255,-82.0032,2.72,23.83,1111122 
SCCF RECON,ioos:station:SCCF:13:1,2008-09-06T10:00:00Z,26.5255,-82.0032,2.73,23.86,1111122 
SCCF RECON,ioos:station:SCCF:13:1,2008-09-06T11:00:00Z,26.5255,-82.0032,2.69,26.27,1111122 
SCCF RECON,ioos:station:SCCF:13:1,2008-09-06T12:00:00Z,26.5255,-82.0032,2.62,24.98,1111122 
SCCF RECON,ioos:station:SCCF:13:1,2008-09-06T13:00:00Z,26.5255,-82.0032,2.52,20.36,1111122 
SCCF RECON,ioos:station:SCCF:13:1,2008-09-06T14:00:00Z,26.5255,-82.0032,2.443,11.47,1111122 
SCCF RECON,ioos:station:SCCF:13:1,2008-09-06T15:00:00Z,26.5255,-82.0032,2.368,9.52,1111122 
SCCF RECON,ioos:station:SCCF:13:1,2008-09-06T16:00:00Z,26.5255,-82.0032,2.289,7.73,1111122 
SCCF RECON,ioos:station:SCCF:13:1,2008-09-06T17:00:00Z,26.5255,-82.0032,2.25,7.61,1111122 
SCCF RECON,ioos:station:SCCF:13:1,2008-09-06T18:00:00Z,26.5255,-82.0032,2.264,7.21,1111122 
SCCF RECON,ioos:station:SCCF:13:1,2008-09-06T19:00:00Z,26.5255,-82.0032,2.31,6.19,1111122 
SCCF RECON,ioos:station:SCCF:13:1,2008-09-06T20:00:00Z,26.5255,-82.0032,2.352,5.87,1111122 
SCCF RECON,ioos:station:SCCF:13:1,2008-09-06T21:00:00Z,26.5255,-82.0032,2.41,6.05,1111122 
SCCF RECON,ioos:station:SCCF:13:1,2008-09-06T22:00:00Z,26.5255,-82.0032,2.44,13.05,1111122 
SCCF RECON,ioos:station:SCCF:13:1,2008-09-06T23:00:00Z,26.5255,-82.0032,2.48,16.99,1111122 
SCCF RECON,ioos:station:SCCF:13:1,2008-09-07T00:00:00Z,26.5255,-82.0032,2.5,17.86,1111122 
SCCF RECON,ioos:station:SCCF:13:1,2008-09-07T01:00:00Z,26.5255,-82.0032,2.52,19.95,1111122 
SCCF RECON,ioos:station:SCCF:13:1,2008-09-07T02:00:00Z,26.5255,-82.0032,2.52,23.58,1111122 
SCCF RECON,ioos:station:SCCF:13:1,2008-09-07T03:00:00Z,26.5255,-82.0032,2.48,21.82,1111122 
SCCF RECON,ioos:station:SCCF:13:1,2008-09-07T04:00:00Z,26.5255,-82.0032,2.49,21.24,1111122 
SCCF RECON,ioos:station:SCCF:13:1,2008-09-07T05:00:00Z,26.5255,-82.0032,2.5,24.82,1111122 
SCCF RECON,ioos:station:SCCF:13:1,2008-09-07T06:00:00Z,26.5255,-82.0032,2.54,25.18,1111122 
SCCF RECON,ioos:station:SCCF:13:1,2008-09-07T07:00:00Z,26.5255,-82.0032,2.59,23.88,1111122 
SCCF RECON,ioos:station:SCCF:13:1,2008-09-07T08:00:00Z,26.5255,-82.0032,2.62,23.71,1111122 
SCCF RECON,ioos:station:SCCF:13:1,2008-09-07T09:00:00Z,26.5255,-82.0032,2.66,25.95,1111122 
SCCF RECON,ioos:station:SCCF:13:1,2008-09-07T10:00:00Z,26.5255,-82.0032,2.67,27.5,1111122 
SCCF RECON,ioos:station:SCCF:13:1,2008-09-07T11:00:00Z,26.5255,-82.0032,2.642,28.01,1111122 
SCCF RECON,ioos:station:SCCF:13:1,2008-09-07T12:00:00Z,26.5255,-82.0032,2.59,27.86,1111122 
SCCF RECON,ioos:station:SCCF:13:1,2008-09-07T13:00:00Z,26.5255,-82.0032,2.5,18.55,1111122 
SCCF RECON,ioos:station:SCCF:13:1,2008-09-07T14:00:00Z,26.5255,-82.0032,2.4,11.06,1111122 
SCCF RECON,ioos:station:SCCF:13:1,2008-09-07T15:00:00Z,26.5255,-82.0032,2.32,6.69,1111122 
SCCF RECON,ioos:station:SCCF:13:1,2008-09-07T16:00:00Z,26.5255,-82.0032,2.26,4.77,1111122 
SCCF RECON,ioos:station:SCCF:13:1,2008-09-07T17:00:00Z,26.5255,-82.0032,2.202,4.2,1111122 
SCCF RECON,ioos:station:SCCF:13:1,2008-09-07T18:00:00Z,26.5255,-82.0032,2.15,3.88,1111122 
SCCF RECON,ioos:station:SCCF:13:1,2008-09-07T19:00:00Z,26.5255,-82.0032,2.12,3.71,1111122 
SCCF RECON,ioos:station:SCCF:13:1,2008-09-07T20:00:00Z,26.5255,-82.0032,2.181,3.37,1111122 
SCCF RECON,ioos:station:SCCF:13:1,2008-09-07T21:00:00Z,26.5255,-82.0032,2.25,2.94,1111122 
SCCF RECON,ioos:station:SCCF:13:1,2008-09-07T22:00:00Z,26.5255,-82.0032,2.289,2.92,1111122 
SCCF RECON,ioos:station:SCCF:13:1,2008-09-07T23:00:00Z,26.5255,-82.0032,2.33,14.34,1111122 
SCCF RECON,ioos:station:SCCF:13:1,2008-09-08T00:00:00Z,26.5255,-82.0032,2.39,17.7,1111122 
SCCF RECON,ioos:station:SCCF:13:1,2008-09-08T01:00:00Z,26.5255,-82.0032,2.447,20.88,1111122 
SCCF RECON,ioos:station:SCCF:13:1,2008-09-08T02:00:00Z,26.5255,-82.0032,2.48,24.32,1111122 
SCCF RECON,ioos:station:SCCF:13:1,2008-09-08T03:00:00Z,26.5255,-82.0032,2.48,25.67,1111122 
SCCF RECON,ioos:station:SCCF:13:1,2008-09-08T04:00:00Z,26.5255,-82.0032,2.48,26.67,1111122 
SCCF RECON,ioos:station:SCCF:13:1,2008-09-08T05:00:00Z,26.5255,-82.0032,2.48,26.99,1111122 
SCCF RECON,ioos:station:SCCF:13:1,2008-09-08T06:00:00Z,26.5255,-82.0032,2.44,27.22,1111122 
SCCF RECON,ioos:station:SCCF:13:1,2008-09-08T07:00:00Z,26.5255,-82.0032,2.42,27.61,1111122 
SCCF RECON,ioos:station:SCCF:13:1,2008-09-08T08:00:00Z,26.5255,-82.0032,2.47,27.76,1111122 
SCCF RECON,ioos:station:SCCF:13:1,2008-09-08T09:00:00Z,26.5255,-82.0032,2.5,27.87,1111122 
SCCF RECON,ioos:station:SCCF:13:1,2008-09-08T10:00:00Z,26.5255,-82.0032,2.54,27.19,1111122 
SCCF RECON,ioos:station:SCCF:13:1,2008-09-08T11:00:00Z,26.5255,-82.0032,2.554,28.76,1111122 
SCCF RECON,ioos:station:SCCF:13:1,2008-09-08T12:00:00Z,26.5255,-82.0032,2.558,29.61,1111122 
SCCF RECON,ioos:station:SCCF:13:1,2008-09-08T13:00:00Z,26.5255,-82.0032,2.54,30.25,1111122 
SCCF RECON,ioos:station:SCCF:13:1,2008-09-08T14:00:00Z,26.5255,-82.0032,2.48,30.49,1111122 
SCCF RECON,ioos:station:SCCF:13:1,2008-09-08T15:00:00Z,26.5255,-82.0032,2.379,25.68,1111122 
SCCF RECON,ioos:station:SCCF:13:1,2008-09-08T16:00:00Z,26.5255,-82.0032,2.27,10.54,1111122 
SCCF RECON,ioos:station:SCCF:13:1,2008-09-08T17:00:00Z,26.5255,-82.0032,2.197,5.64,1111122 
SCCF RECON,ioos:station:SCCF:13:1,2008-09-08T18:00:00Z,26.5255,-82.0032,2.14,4.77,1111122 
SCCF RECON,ioos:station:SCCF:13:1,2008-09-08T19:00:00Z,26.5255,-82.0032,2.119,4.64,1111122 
SCCF RECON,ioos:station:SCCF:13:1,2008-09-08T20:00:00Z,26.5255,-82.0032,2.111,4.36,1111122 
SCCF RECON,ioos:station:SCCF:13:1,2008-09-08T21:00:00Z,26.5255,-82.0032,2.13,3.93,1111122 
SCCF RECON,ioos:station:SCCF:13:1,2008-09-08T22:00:00Z,26.5255,-82.0032,2.167,3.35,1111122 
SCCF RECON,ioos:station:SCCF:13:1,2008-09-08T23:00:00Z,26.5255,-82.0032,2.242,3.62,1111122 
SCCF RECON,ioos:station:SCCF:13:1,2008-09-09T00:00:00Z,26.5255,-82.0032,2.34,19.08,1111122 
SCCF RECON,ioos:station:SCCF:13:1,2008-09-09T01:00:00Z,26.5255,-82.0032,2.323,24.29,1111122 
SCCF RECON,ioos:station:SCCF:13:1,2008-09-09T02:00:00Z,26.5255,-82.0032,2.28,25.04,1111122 
SCCF RECON,ioos:station:SCCF:13:1,2008-09-09T03:00:00Z,26.5255,-82.0032,2.3,25.19,1111122 
SCCF RECON,ioos:station:SCCF:13:1,2008-09-09T04:00:00Z,26.5255,-82.0032,2.346,25.63,1111122 
SCCF RECON,ioos:station:SCCF:13:1,2008-09-09T05:00:00Z,26.5255,-82.0032,2.39,26.34,1111122 
SCCF RECON,ioos:station:SCCF:13:1,2008-09-09T06:00:00Z,26.5255,-82.0032,2.37,27.84,1111122 
SCCF RECON,ioos:station:SCCF:13:1,2008-09-09T07:00:00Z,26.5255,-82.0032,2.32,29.03,1111122 
SCCF RECON,ioos:station:SCCF:13:1,2008-09-09T08:00:00Z,26.5255,-82.0032,2.29,29.26,1111122 
SCCF RECON,ioos:station:SCCF:13:1,2008-09-09T09:00:00Z,26.5255,-82.0032,2.428,27.11,1111122 
SCCF RECON,ioos:station:SCCF:13:1,2008-09-09T10:00:00Z,26.5255,-82.0032,2.39,28.82,1111122 
SCCF RECON,ioos:station:SCCF:13:1,2008-09-09T11:00:00Z,26.5255,-82.0032,2.36,28.92,1111122 
SCCF RECON,ioos:station:SCCF:13:1,2008-09-09T12:00:00Z,26.5255,-82.0032,2.387,28.8,1111122 
SCCF RECON,ioos:station:SCCF:13:1,2008-09-09T13:00:00Z,26.5255,-82.0032,2.409,27.89,1111122 
SCCF RECON,ioos:station:SCCF:13:1,2008-09-09T14:00:00Z,26.5255,-82.0032,2.46,28.05,1111122 
SCCF RECON,ioos:station:SCCF:13:1,2008-09-09T15:00:00Z,26.5255,-82.0032,2.41,29.3,1111122 
SCCF RECON,ioos:station:SCCF:13:1,2008-09-09T16:00:00Z,26.5255,-82.0032,2.301,29.55,1111122 
SCCF RECON,ioos:station:SCCF:13:1,2008-09-09T17:00:00Z,26.5255,-82.0032,2.22,23.76,1111122 
SCCF RECON,ioos:station:SCCF:13:1,2008-09-09T18:00:00Z,26.5255,-82.0032,2.16,16.29,1111122 
SCCF RECON,ioos:station:SCCF:13:1,2008-09-09T19:00:00Z,26.5255,-82.0032,2.01,5.19,1111122 
SCCF RECON,ioos:station:SCCF:13:1,2008-09-09T20:00:00Z,26.5255,-82.0032,2.019,3.94,1111122 
SCCF RECON,ioos:station:SCCF:13:1,2008-09-09T21:00:00Z,26.5255,-82.0032,2.13,2.91,1111122 
SCCF RECON,ioos:station:SCCF:13:1,2008-09-09T22:00:00Z,26.5255,-82.0032,2.16,3.5,1111122 
SCCF RECON,ioos:station:SCCF:13:1,2008-09-09T23:00:00Z,26.5255,-82.0032,2.119,2.61,1111122 
SCCF RECON,ioos:station:SCCF:13:1,2008-09-10T00:00:00Z,26.5255,-82.0032,2.2,10.67,1111122 
SCCF RECON,ioos:station:SCCF:13:1,2008-09-10T01:00:00Z,26.5255,-82.0032,2.272,15.53,1111122 
SCCF RECON,ioos:station:SCCF:13:1,2008-09-10T02:00:00Z,26.5255,-82.0032,2.366,21.91,1111122 
SCCF RECON,ioos:station:SCCF:13:1,2008-09-10T03:00:00Z,26.5255,-82.0032,2.45,24.56,1111122 
SCCF RECON,ioos:station:SCCF:13:1,2008-09-10T04:00:00Z,26.5255,-82.0032,2.487,27.01,1111122 
SCCF RECON,ioos:station:SCCF:13:1,2008-09-10T05:00:00Z,26.5255,-82.0032,2.53,29.99,1111122 
SCCF RECON,ioos:station:SCCF:13:1,2008-09-10T06:00:00Z,26.5255,-82.0032,2.56,31.44,1111122 
SCCF RECON,ioos:station:SCCF:13:1,2008-09-10T07:00:00Z,26.5255,-82.0032,2.58,32.04,1111122 
SCCF RECON,ioos:station:SCCF:13:1,2008-09-10T08:00:00Z,26.5255,-82.0032,2.58,32.59,1111122 
SCCF RECON,ioos:station:SCCF:13:1,2008-09-10T09:00:00Z,26.5255,-82.0032,2.653,32.92,1111122 
SCCF RECON,ioos:station:SCCF:13:1,2008-09-10T10:00:00Z,26.5255,-82.0032,2.719,33.21,1111122 
SCCF RECON,ioos:station:SCCF:13:1,2008-09-10T11:00:00Z,26.5255,-82.0032,2.792,33.62,1111122 
SCCF RECON,ioos:station:SCCF:13:1,2008-09-10T12:00:00Z,26.5255,-82.0032,2.877,33.95,1111122 
SCCF RECON,ioos:station:SCCF:13:1,2008-09-10T13:00:00Z,26.5255,-82.0032,2.937,34.24,1111122 
SCCF RECON,ioos:station:SCCF:13:1,2008-09-10T14:00:00Z,26.5255,-82.0032,3.01,34.55,1111122 
SCCF RECON,ioos:station:SCCF:13:1,2008-09-10T15:00:00Z,26.5255,-82.0032,3.02,34.51,1111122 
SCCF RECON,ioos:station:SCCF:13:1,2008-09-10T16:00:00Z,26.5255,-82.0032,3.01,34.68,1111122 
SCCF RECON,ioos:station:SCCF:13:1,2008-09-10T17:00:00Z,26.5255,-82.0032,2.911,34.65,1111122 
SCCF RECON,ioos:station:SCCF:13:1,2008-09-10T18:00:00Z,26.5255,-82.0032,2.789,34.28,1111122 
SCCF RECON,ioos:station:SCCF:13:1,2008-09-10T19:00:00Z,26.5255,-82.0032,2.709,30.87,1111122 
SCCF RECON,ioos:station:SCCF:13:1,2008-09-10T20:00:00Z,26.5255,-82.0032,2.641,22.06,1111122 
SCCF RECON,ioos:station:SCCF:13:1,2008-09-10T21:00:00Z,26.5255,-82.0032,2.574,18.45,1111122 
SCCF RECON,ioos:station:SCCF:13:1,2008-09-10T22:00:00Z,26.5255,-82.0032,2.57,15.44,1111122 
SCCF RECON,ioos:station:SCCF:13:1,2008-09-10T23:00:00Z,26.5255,-82.0032,2.616,16.47,1111122 
SCCF RECON,ioos:station:SCCF:13:1,2008-09-11T00:00:00Z,26.5255,-82.0032,2.64,16.22,1111122 
SCCF RECON,ioos:station:SCCF:13:1,2008-09-11T01:00:00Z,26.5255,-82.0032,2.651,27.4,1111122 
SCCF RECON,ioos:station:SCCF:13:1,2008-09-11T02:00:00Z,26.5255,-82.0032,2.7,27.63,1111122 
SCCF RECON,ioos:station:SCCF:13:1,2008-09-11T03:00:00Z,26.5255,-82.0032,2.76,28.35,1111122 
SCCF RECON,ioos:station:SCCF:13:1,2008-09-11T04:00:00Z,26.5255,-82.0032,2.809,30.14,1111122 
SCCF RECON,ioos:station:SCCF:13:1,2008-09-11T05:00:00Z,26.5255,-82.0032,2.833,32.26,1111122 
SCCF RECON,ioos:station:SCCF:13:1,2008-09-11T06:00:00Z,26.5255,-82.0032,2.8,33.62,1111122 
SCCF RECON,ioos:station:SCCF:13:1,2008-09-11T07:00:00Z,26.5255,-82.0032,2.76,33.78,1111122 
SCCF RECON,ioos:station:SCCF:13:1,2008-09-11T08:00:00Z,26.5255,-82.0032,2.71,33.23,1111122 
SCCF RECON,ioos:station:SCCF:13:1,2008-09-11T09:00:00Z,26.5255,-82.0032,2.651,32.55,1111122 
SCCF RECON,ioos:station:SCCF:13:1,2008-09-11T10:00:00Z,26.5255,-82.0032,2.7,33.83,1111122 
SCCF RECON,ioos:station:SCCF:13:1,2008-09-11T11:00:00Z,26.5255,-82.0032,2.79,31.1,1111122 
SCCF RECON,ioos:station:SCCF:13:1,2008-09-11T12:00:00Z,26.5255,-82.0032,2.83,30.47,1111122 
SCCF RECON,ioos:station:SCCF:13:1,2008-09-11T13:00:00Z,26.5255,-82.0032,2.87,32.47,1111122 
SCCF RECON,ioos:station:SCCF:13:1,2008-09-11T14:00:00Z,26.5255,-82.0032,2.904,32.52,1111122 
SCCF RECON,ioos:station:SCCF:13:1,2008-09-11T15:00:00Z,26.5255,-82.0032,2.916,33.36,1111122 
SCCF RECON,ioos:station:SCCF:13:1,2008-09-11T16:00:00Z,26.5255,-82.0032,2.91,33.67,1111122 
SCCF RECON,ioos:station:SCCF:13:1,2008-09-11T17:00:00Z,26.5255,-82.0032,2.839,33.66,1111122 
SCCF RECON,ioos:station:SCCF:13:1,2008-09-11T18:00:00Z,26.5255,-82.0032,2.71,33.36,1111122 
SCCF RECON,ioos:station:SCCF:13:1,2008-09-11T19:00:00Z,26.5255,-82.0032,2.577,28.3,1111122 